Regional Weather Roundup
Issued by NWS

Home | Current Version | Previous Version | Graphics & Text | Print | Product List | Glossary On
Versions: 1 2 3 4 5 6 7 8 9 10 11 12 13 14 15 16 17 18 19 20 21 22 23 24 25 26 27 28 29 30 31 32 33 34 35 36 37 38 39 40 41 42 43 44 45 46 47 48 49 50
000
ASUS45 KCYS 291610
RWRWY

WYOMING REGIONAL WEATHER ROUNDUP
NATIONAL WEATHER SERVICE CHEYENNE WY
1000 AM MDT FRI MAY 29 2015

NOTE:  "FAIR" INDICATES FEW OR NO CLOUDS BELOW 12,000 FEET
WITH NO SIGNIFICANT WEATHER AND/OR OBSTRUCTIONS TO VISIBILITY.

WYZ001-291700-
YELLOWSTONE NATIONAL PARK

CITY           SKY/WX    TMP DP  RH WIND       PRES   REMARKS
LK YELLOWSTONE   N/A     42  37  82 VRB3      30.36S
W YELLOWSTONE  NOT AVBL

$$
WYZ002>013-054>058-071-098>099-291700-
NORTHERN WYOMING

CITY           SKY/WX    TMP DP  RH WIND       PRES   REMARKS
JACKSON        CLOUDY    45  43  93 CALM      30.32S
CODY           CLOUDY    48  45  87 N7        30.30F
GREYBULL       FAIR      57  45  64 NW12G18   30.25R
WORLAND        CLOUDY    55  47  74 NW10      30.27R
SHERIDAN       CLOUDY    44  42  93 N5        30.32S FOG
BUFFALO        CLOUDY    44  43  96 N7        30.31R FOG
GILLETTE       CLOUDY    42  41  96 NW14      30.29R FOG
HULETT         LGT RAIN  41  41 100 N8        30.30R VSB 1/4
NEWCASTLE      PTSUNNY   46  43  87 NW15G23   30.23R

$$
WYZ014>020-022>026-101>103-291700-
CENTRAL WYOMING

CITY           SKY/WX    TMP DP  RH WIND       PRES   REMARKS
BIG PINEY      PTSUNNY   46  38  73 SW3       30.34R
PINEDALE       FAIR      48  37  66 SE7       30.34S
DUBOIS         FAIR      48  36  61 S7        30.31S
LANDER         CLOUDY    52  44  74 E5        30.29R
RIVERTON       CLOUDY    53  44  71 N9        30.30S
CASPER         LGT RAIN  48  45  89 N13       30.29R
DOUGLAS        LGT RAIN  48  45  89 N20G25    30.26R

$$
WYZ021-027>030-104>119-291700-
SOUTHERN WYOMING

CITY           SKY/WX    TMP DP  RH WIND       PRES   REMARKS
EVANSTON       FAIR      52  40  63 VRB3      30.32R
KEMMERER       FAIR      52  37  58 E7        30.34R
FORT BRIDGER   CLOUDY    54  43  66 SE5       30.36R
ROCK SPRINGS   PTSUNNY   49  40  71 VRB5      30.33R
DIXON          CLOUDY    48  43  83 CALM      30.33S
RAWLINS        CLOUDY    49  41  74 N8        30.31S
SARATOGA       CLOUDY    46  39  76 N6        30.32S
LARAMIE        PTSUNNY   47  39  74 N16       30.27F
CHEYENNE       FAIR      53  41  63 N10       30.22S
TORRINGTON     LGT RAIN  55  51  86 NW6       30.17S
PINE BLUFFS    FAIR      55  46  71 N17       30.21S

$$



USA.gov is the U.S. government's official web portal to all federal, state and local government web resources and services.